Year,Month,Day,Hour,Minute,Value (Times are PST for windgust in km/hr)
2010,04,02,00,00,22.50
2010,04,02,00,01,19.30
2010,04,02,00,02,25.70
2010,04,02,00,03,22.50
2010,04,02,00,04,29.00
2010,04,02,00,05,27.40
2010,04,02,00,06,24.20
2010,04,02,00,07,33.80
2010,04,02,00,08,38.60
2010,04,02,00,09,29.00
2010,04,02,00,10,32.20
2010,04,02,00,11,35.40
2010,04,02,00,12,19.30
2010,04,02,00,13,20.90
2010,04,02,00,14,19.30
2010,04,02,00,15,19.30
2010,04,02,00,16,24.20
2010,04,02,00,17,27.40
2010,04,02,00,18,29.00
2010,04,02,00,19,22.50
2010,04,02,00,20,20.90
2010,04,02,00,21,14.50
2010,04,02,00,22,24.20
2010,04,02,00,23,22.50
2010,04,02,00,24,22.50
2010,04,02,00,25,27.40
2010,04,02,00,26,32.20
2010,04,02,00,27,24.20
2010,04,02,00,28,20.90
2010,04,02,00,29,17.70
2010,04,02,00,30,22.50
2010,04,02,00,31,27.40
2010,04,02,00,32,24.20
2010,04,02,00,33,35.40
2010,04,02,00,34,35.40
2010,04,02,00,35,41.80
2010,04,02,00,36,25.70
2010,04,02,00,37,22.50
2010,04,02,00,38,24.20
2010,04,02,00,39,32.20
2010,04,02,00,40,38.60
2010,04,02,00,41,24.20
2010,04,02,00,42,25.70
2010,04,02,00,43,32.20
2010,04,02,00,44,35.40
2010,04,02,00,45,27.40
2010,04,02,00,46,24.20
2010,04,02,00,47,24.20
2010,04,02,00,48,29.00
2010,04,02,00,49,24.20
2010,04,02,00,50,33.80
2010,04,02,00,51,27.40
2010,04,02,00,52,30.60
2010,04,02,00,53,30.60
2010,04,02,00,54,25.70
2010,04,02,00,55,27.40
2010,04,02,00,56,20.90
2010,04,02,00,57,20.90
2010,04,02,00,58,22.50
2010,04,02,00,59,19.30
2010,04,02,01,00,27.40
2010,04,02,01,01,29.00
2010,04,02,01,02,25.70
2010,04,02,01,03,20.90
2010,04,02,01,04,22.50
2010,04,02,01,05,32.20
2010,04,02,01,06,29.00
2010,04,02,01,07,24.20
2010,04,02,01,08,24.20
2010,04,02,01,09,19.30
2010,04,02,01,10,19.30
2010,04,02,01,11,16.10
2010,04,02,01,12,17.70
2010,04,02,01,13,27.40
2010,04,02,01,14,17.70
2010,04,02,01,15,29.00
2010,04,02,01,16,25.70
2010,04,02,01,17,19.30
2010,04,02,01,18,19.30
2010,04,02,01,19,16.10
2010,04,02,01,20,17.70
2010,04,02,01,21,17.70
2010,04,02,01,22,20.90
2010,04,02,01,23,17.70
2010,04,02,01,24,17.70
2010,04,02,01,25,17.70
2010,04,02,01,26,25.70
2010,04,02,01,27,16.10
2010,04,02,01,28,20.90
2010,04,02,01,29,19.30
2010,04,02,01,30,17.70
2010,04,02,01,31,29.00
2010,04,02,01,32,14.50
2010,04,02,01,33,11.30
2010,04,02,01,34,9.60
2010,04,02,01,35,19.30
2010,04,02,01,36,14.50
2010,04,02,01,37,16.10
2010,04,02,01,38,16.10
2010,04,02,01,39,14.50
2010,04,02,01,40,17.70
2010,04,02,01,41,29.00
2010,04,02,01,42,16.10
2010,04,02,01,43,32.20
2010,04,02,01,44,29.00
2010,04,02,01,45,27.40
2010,04,02,01,46,20.90
2010,04,02,01,47,27.40
2010,04,02,01,48,17.70
2010,04,02,01,49,16.10
2010,04,02,01,50,11.30
2010,04,02,01,51,27.40
2010,04,02,01,52,14.50
2010,04,02,01,53,19.30
2010,04,02,01,54,29.00
2010,04,02,01,55,19.30
2010,04,02,01,56,12.90
2010,04,02,01,57,17.70
2010,04,02,01,58,9.60
2010,04,02,01,59,22.50
2010,04,02,02,00,14.50
2010,04,02,02,01,17.70
2010,04,02,02,02,11.30
2010,04,02,02,03,19.30
2010,04,02,02,04,16.10
2010,04,02,02,05,12.90
2010,04,02,02,06,19.30
2010,04,02,02,07,9.60
2010,04,02,02,08,19.30
2010,04,02,02,09,22.50
2010,04,02,02,10,19.30
2010,04,02,02,11,20.90
2010,04,02,02,12,17.70
2010,04,02,02,13,20.90
2010,04,02,02,14,22.50
2010,04,02,02,15,20.90
2010,04,02,02,16,22.50
2010,04,02,02,17,17.70
2010,04,02,02,18,25.70
2010,04,02,02,19,16.10
2010,04,02,02,20,20.90
2010,04,02,02,21,29.00
2010,04,02,02,22,17.70
2010,04,02,02,23,22.50
2010,04,02,02,24,22.50
2010,04,02,02,25,24.20
2010,04,02,02,26,24.20
2010,04,02,02,27,24.20
2010,04,02,02,28,19.30
2010,04,02,02,29,20.90
2010,04,02,02,30,25.70
2010,04,02,02,31,25.70
2010,04,02,02,32,25.70
2010,04,02,02,33,38.60
2010,04,02,02,34,19.30
2010,04,02,02,35,30.60
2010,04,02,02,36,20.90
2010,04,02,02,37,16.10
2010,04,02,02,38,27.40
2010,04,02,02,39,32.20
2010,04,02,02,40,24.20
2010,04,02,02,41,24.20
2010,04,02,02,42,27.40
2010,04,02,02,43,11.30
2010,04,02,02,44,22.50
2010,04,02,02,45,19.30
2010,04,02,02,46,16.10
2010,04,02,02,47,20.90
2010,04,02,02,48,17.70
2010,04,02,02,49,20.90
2010,04,02,02,50,16.10
2010,04,02,02,51,19.30
2010,04,02,02,52,20.90
2010,04,02,02,53,19.30
2010,04,02,02,54,29.00
2010,04,02,02,55,29.00
2010,04,02,02,56,25.70
2010,04,02,02,57,24.20
2010,04,02,02,58,22.50
2010,04,02,02,59,20.90
2010,04,02,03,00,24.20
2010,04,02,03,01,22.50
2010,04,02,03,02,14.50
2010,04,02,03,03,17.70
2010,04,02,03,04,27.40
2010,04,02,03,05,33.80
2010,04,02,03,06,32.20
2010,04,02,03,07,33.80
2010,04,02,03,08,24.20
2010,04,02,03,09,27.40
2010,04,02,03,10,30.60
2010,04,02,03,11,24.20
2010,04,02,03,12,24.20
2010,04,02,03,13,22.50
2010,04,02,03,14,19.30
2010,04,02,03,15,32.20
2010,04,02,03,16,30.60
2010,04,02,03,17,22.50
2010,04,02,03,18,24.20
2010,04,02,03,19,20.90
2010,04,02,03,20,30.60
2010,04,02,03,21,25.70
2010,04,02,03,22,19.30
2010,04,02,03,23,14.50
2010,04,02,03,24,24.20
2010,04,02,03,25,22.50
2010,04,02,03,26,22.50
2010,04,02,03,27,17.70
2010,04,02,03,28,33.80
2010,04,02,03,29,24.20
2010,04,02,03,30,20.90
2010,04,02,03,31,22.50
2010,04,02,03,32,17.70
2010,04,02,03,33,20.90
2010,04,02,03,34,20.90
2010,04,02,03,35,20.90
2010,04,02,03,36,16.10
2010,04,02,03,37,27.40
2010,04,02,03,38,29.00
2010,04,02,03,39,30.60
2010,04,02,03,40,27.40
2010,04,02,03,41,29.00
2010,04,02,03,42,25.70
2010,04,02,03,43,25.70
2010,04,02,03,44,27.40
2010,04,02,03,45,22.50
2010,04,02,03,46,29.00
2010,04,02,03,47,20.90
2010,04,02,03,48,20.90
2010,04,02,03,49,22.50
2010,04,02,03,50,16.10
2010,04,02,03,51,20.90
2010,04,02,03,52,22.50
2010,04,02,03,53,27.40
2010,04,02,03,54,19.30
2010,04,02,03,55,19.30
2010,04,02,03,56,20.90
2010,04,02,03,57,22.50
2010,04,02,03,58,32.20
2010,04,02,03,59,17.70
2010,04,02,04,00,17.70
2010,04,02,04,01,22.50
2010,04,02,04,02,24.20
2010,04,02,04,03,29.00
2010,04,02,04,04,27.40
2010,04,02,04,05,32.20
2010,04,02,04,06,25.70
2010,04,02,04,07,17.70
2010,04,02,04,08,35.40
2010,04,02,04,09,20.90
2010,04,02,04,10,29.00
2010,04,02,04,11,16.10
2010,04,02,04,12,24.20
2010,04,02,04,13,22.50
2010,04,02,04,14,30.60
2010,04,02,04,15,20.90
2010,04,02,04,16,17.70
2010,04,02,04,17,29.00
2010,04,02,04,18,19.30
2010,04,02,04,19,19.30
2010,04,02,04,20,17.70
2010,04,02,04,21,19.30
2010,04,02,04,22,20.90
2010,04,02,04,23,33.80
2010,04,02,04,24,20.90
2010,04,02,04,25,24.20
2010,04,02,04,26,27.40
2010,04,02,04,27,17.70
2010,04,02,04,28,17.70
2010,04,02,04,29,24.20
2010,04,02,04,30,20.90
2010,04,02,04,31,27.40
2010,04,02,04,32,25.70
2010,04,02,04,33,20.90
2010,04,02,04,34,20.90
2010,04,02,04,35,20.90
2010,04,02,04,36,20.90
2010,04,02,04,37,24.20
2010,04,02,04,38,25.70
2010,04,02,04,39,27.40
2010,04,02,04,40,30.60
2010,04,02,04,41,29.00
2010,04,02,04,42,19.30
2010,04,02,04,43,25.70
2010,04,02,04,44,24.20
2010,04,02,04,45,24.20
2010,04,02,04,46,30.60
2010,04,02,04,47,19.30
2010,04,02,04,48,19.30
2010,04,02,04,49,24.20
2010,04,02,04,50,27.40
2010,04,02,04,51,37.00
2010,04,02,04,52,25.70
2010,04,02,04,53,40.20
2010,04,02,04,54,24.20
2010,04,02,04,55,35.40
2010,04,02,04,56,19.30
2010,04,02,04,57,37.00
2010,04,02,04,58,29.00
2010,04,02,04,59,24.20
2010,04,02,05,00,30.60
2010,04,02,05,01,33.80
2010,04,02,05,02,20.90
2010,04,02,05,03,22.50
2010,04,02,05,04,25.70
2010,04,02,05,05,25.70
2010,04,02,05,06,35.40
2010,04,02,05,07,22.50
2010,04,02,05,08,27.40
2010,04,02,05,09,25.70
2010,04,02,05,10,33.80
2010,04,02,05,11,19.30
2010,04,02,05,12,29.00
2010,04,02,05,13,32.20
2010,04,02,05,14,24.20
2010,04,02,05,15,24.20
2010,04,02,05,16,24.20
2010,04,02,05,17,38.60
2010,04,02,05,18,29.00
2010,04,02,05,19,27.40
2010,04,02,05,20,24.20
2010,04,02,05,21,35.40
2010,04,02,05,22,35.40
2010,04,02,05,23,30.60
2010,04,02,05,24,35.40
2010,04,02,05,25,24.20
2010,04,02,05,26,24.20
2010,04,02,05,27,24.20
2010,04,02,05,28,25.70
2010,04,02,05,29,25.70
2010,04,02,05,30,20.90
2010,04,02,05,31,29.00
2010,04,02,05,32,29.00
2010,04,02,05,33,27.40
2010,04,02,05,34,25.70
2010,04,02,05,35,27.40
2010,04,02,05,36,37.00
2010,04,02,05,37,33.80
2010,04,02,05,38,33.80
2010,04,02,05,39,33.80
2010,04,02,05,40,27.40
2010,04,02,05,41,22.50
2010,04,02,05,42,20.90
2010,04,02,05,43,19.30
2010,04,02,05,44,27.40
2010,04,02,05,45,32.20
2010,04,02,05,46,32.20
2010,04,02,05,47,25.70
2010,04,02,05,48,22.50
2010,04,02,05,49,20.90
2010,04,02,05,50,22.50
2010,04,02,05,51,24.20
2010,04,02,05,52,19.30
2010,04,02,05,53,24.20
2010,04,02,05,54,25.70
2010,04,02,05,55,24.20
2010,04,02,05,56,38.60
2010,04,02,05,57,35.40
2010,04,02,05,58,32.20
2010,04,02,05,59,37.00
2010,04,02,06,00,35.40
2010,04,02,06,01,20.90
2010,04,02,06,02,27.40
2010,04,02,06,03,24.20
2010,04,02,06,04,32.20
2010,04,02,06,05,30.60
2010,04,02,06,06,27.40
2010,04,02,06,07,38.60
2010,04,02,06,08,33.80
2010,04,02,06,09,33.80
2010,04,02,06,10,29.00
2010,04,02,06,11,29.00
2010,04,02,06,12,30.60
2010,04,02,06,13,30.60
2010,04,02,06,14,37.00
2010,04,02,06,15,24.20
2010,04,02,06,16,30.60
2010,04,02,06,17,40.20
2010,04,02,06,18,27.40
2010,04,02,06,19,30.60
2010,04,02,06,20,30.60
2010,04,02,06,21,29.00
2010,04,02,06,22,45.10
2010,04,02,06,23,27.40
2010,04,02,06,24,43.50
2010,04,02,06,25,32.20
2010,04,02,06,26,43.50
2010,04,02,06,27,32.20
2010,04,02,06,28,19.30
2010,04,02,06,29,35.40
2010,04,02,06,30,20.90
2010,04,02,06,31,24.20
2010,04,02,06,32,16.10
2010,04,02,06,33,27.40
2010,04,02,06,34,24.20
2010,04,02,06,35,29.00
2010,04,02,06,36,27.40
2010,04,02,06,37,22.50
2010,04,02,06,38,33.80
2010,04,02,06,39,33.80
2010,04,02,06,40,25.70
2010,04,02,06,41,35.40
2010,04,02,06,42,29.00
2010,04,02,06,43,24.20
2010,04,02,06,44,30.60
2010,04,02,06,45,22.50
2010,04,02,06,46,38.60
2010,04,02,06,47,29.00
2010,04,02,06,48,24.20
2010,04,02,06,49,29.00
2010,04,02,06,50,27.40
2010,04,02,06,51,32.20
2010,04,02,06,52,38.60
2010,04,02,06,53,32.20
2010,04,02,06,54,30.60
2010,04,02,06,55,27.40
2010,04,02,06,56,24.20
2010,04,02,06,57,35.40
2010,04,02,06,58,38.60
2010,04,02,06,59,33.80
2010,04,02,07,00,38.60
2010,04,02,07,01,37.00
2010,04,02,07,02,29.00
2010,04,02,07,03,43.50
2010,04,02,07,04,27.40
2010,04,02,07,05,30.60
2010,04,02,07,06,22.50
2010,04,02,07,07,45.10
2010,04,02,07,08,25.70
2010,04,02,07,09,35.40
2010,04,02,07,10,27.40
2010,04,02,07,11,41.80
2010,04,02,07,12,49.90
2010,04,02,07,13,27.40
2010,04,02,07,14,35.40
2010,04,02,07,15,43.50
2010,04,02,07,16,40.20
2010,04,02,07,17,24.20
2010,04,02,07,18,32.20
2010,04,02,07,19,24.20
2010,04,02,07,20,22.50
2010,04,02,07,21,24.20
2010,04,02,07,22,32.20
2010,04,02,07,23,27.40
2010,04,02,07,24,41.80
2010,04,02,07,25,33.80
2010,04,02,07,26,30.60
2010,04,02,07,27,35.40
2010,04,02,07,28,35.40
2010,04,02,07,29,38.60
2010,04,02,07,30,24.20
2010,04,02,07,31,38.60
2010,04,02,07,32,33.80
2010,04,02,07,33,20.90
2010,04,02,07,34,30.60
2010,04,02,07,35,33.80
2010,04,02,07,36,32.20
2010,04,02,07,37,38.60
2010,04,02,07,38,35.40
2010,04,02,07,39,32.20
2010,04,02,07,40,32.20
2010,04,02,07,41,37.00
2010,04,02,07,42,32.20
2010,04,02,07,43,46.70
2010,04,02,07,44,33.80
2010,04,02,07,45,43.50
2010,04,02,07,46,35.40
2010,04,02,07,47,43.50
2010,04,02,07,48,46.70
2010,04,02,07,49,53.10
2010,04,02,07,50,51.50
2010,04,02,07,51,37.00
2010,04,02,07,52,27.40
2010,04,02,07,53,30.60
2010,04,02,07,54,33.80
2010,04,02,07,55,33.80
2010,04,02,07,56,45.10
2010,04,02,07,57,48.30
2010,04,02,07,58,45.10
2010,04,02,07,59,43.50
2010,04,02,08,00,35.40
2010,04,02,08,01,30.60
2010,04,02,08,02,32.20
2010,04,02,08,03,35.40
2010,04,02,08,04,29.00
2010,04,02,08,05,56.30
2010,04,02,08,06,48.30
2010,04,02,08,07,38.60
2010,04,02,08,08,40.20
2010,04,02,08,09,40.20
2010,04,02,08,10,40.20
2010,04,02,08,11,40.20
2010,04,02,08,12,40.20
2010,04,02,08,13,59.50
2010,04,02,08,14,46.70
2010,04,02,08,15,45.10
2010,04,02,08,16,41.80
2010,04,02,08,17,46.70
2010,04,02,08,18,38.60
2010,04,02,08,19,29.00
2010,04,02,08,20,41.80
2010,04,02,08,21,48.30
2010,04,02,08,22,43.50
2010,04,02,08,23,27.40
2010,04,02,08,24,38.60
2010,04,02,08,25,41.80
2010,04,02,08,26,29.00
2010,04,02,08,27,30.60
2010,04,02,08,28,40.20
2010,04,02,08,29,32.20
2010,04,02,08,30,27.40
2010,04,02,08,31,27.40
2010,04,02,08,32,37.00
2010,04,02,08,33,32.20
2010,04,02,08,34,29.00
2010,04,02,08,35,30.60
2010,04,02,08,36,46.70
2010,04,02,08,37,37.00
2010,04,02,08,38,25.70
2010,04,02,08,39,33.80
2010,04,02,08,40,40.20
2010,04,02,08,41,30.60
2010,04,02,08,42,51.50
2010,04,02,08,43,54.70
2010,04,02,08,44,33.80
2010,04,02,08,45,41.80
2010,04,02,08,46,48.30
2010,04,02,08,47,40.20
2010,04,02,08,48,33.80
2010,04,02,08,49,37.00
2010,04,02,08,50,45.10
2010,04,02,08,51,43.50
2010,04,02,08,52,40.20
2010,04,02,08,53,40.20
2010,04,02,08,54,30.60
2010,04,02,08,55,29.00
2010,04,02,08,56,41.80
2010,04,02,08,57,43.50
2010,04,02,08,58,27.40
2010,04,02,08,59,24.20
2010,04,02,09,00,38.60
2010,04,02,09,01,33.80
2010,04,02,09,02,41.80
2010,04,02,09,03,40.20
2010,04,02,09,04,27.40
2010,04,02,09,05,32.20
2010,04,02,09,06,46.70
2010,04,02,09,07,32.20
2010,04,02,09,08,40.20
2010,04,02,09,09,45.10
2010,04,02,09,10,40.20
2010,04,02,09,11,29.00
2010,04,02,09,12,24.20
2010,04,02,09,13,43.50
2010,04,02,09,14,49.90
2010,04,02,09,15,45.10
2010,04,02,09,16,41.80
2010,04,02,09,17,38.60
2010,04,02,09,18,40.20
2010,04,02,09,19,43.50
2010,04,02,09,20,32.20
2010,04,02,09,21,35.40
2010,04,02,09,22,33.80
2010,04,02,09,23,24.20
2010,04,02,09,24,33.80
2010,04,02,09,25,43.50
2010,04,02,09,26,29.00
2010,04,02,09,27,51.50
2010,04,02,09,28,35.40
2010,04,02,09,29,37.00
2010,04,02,09,30,29.00
2010,04,02,09,31,37.00
2010,04,02,09,32,41.80
2010,04,02,09,33,48.30
2010,04,02,09,34,32.20
2010,04,02,09,35,33.80
2010,04,02,09,36,19.30
2010,04,02,09,37,37.00
2010,04,02,09,38,30.60
2010,04,02,09,39,35.40
2010,04,02,09,40,25.70
2010,04,02,09,41,37.00
2010,04,02,09,42,29.00
2010,04,02,09,43,33.80
2010,04,02,09,44,25.70
2010,04,02,09,45,29.00
2010,04,02,09,46,22.50
2010,04,02,09,47,20.90
2010,04,02,09,48,37.00
2010,04,02,09,49,32.20
2010,04,02,09,50,37.00
2010,04,02,09,51,30.60
2010,04,02,09,52,33.80
2010,04,02,09,53,25.70
2010,04,02,09,54,41.80
2010,04,02,09,55,43.50
2010,04,02,09,56,27.40
2010,04,02,09,57,43.50
2010,04,02,09,58,40.20
2010,04,02,09,59,41.80
2010,04,02,10,00,35.40
2010,04,02,10,01,40.20
2010,04,02,10,02,25.70
2010,04,02,10,03,38.60
2010,04,02,10,04,35.40
2010,04,02,10,05,35.40
2010,04,02,10,06,22.50
2010,04,02,10,07,32.20
2010,04,02,10,08,32.20
2010,04,02,10,09,33.80
2010,04,02,10,10,46.70
2010,04,02,10,11,38.60
2010,04,02,10,12,46.70
2010,04,02,10,13,35.40
2010,04,02,10,14,48.30
2010,04,02,10,15,37.00
2010,04,02,10,16,30.60
2010,04,02,10,17,40.20
2010,04,02,10,18,30.60
2010,04,02,10,19,37.00
2010,04,02,10,20,41.80
2010,04,02,10,21,40.20
2010,04,02,10,22,38.60
2010,04,02,10,23,43.50
2010,04,02,10,24,32.20
2010,04,02,10,25,41.80
2010,04,02,10,26,37.00
2010,04,02,10,27,38.60
2010,04,02,10,28,33.80
2010,04,02,10,29,35.40
2010,04,02,10,30,29.00
2010,04,02,10,31,33.80
2010,04,02,10,32,38.60
2010,04,02,10,33,40.20
2010,04,02,10,34,25.70
2010,04,02,10,35,32.20
2010,04,02,10,36,32.20
2010,04,02,10,37,35.40
2010,04,02,10,38,41.80
2010,04,02,10,39,37.00
2010,04,02,10,40,32.20
2010,04,02,10,41,37.00
2010,04,02,10,42,33.80
2010,04,02,10,43,35.40
2010,04,02,10,44,45.10
2010,04,02,10,45,46.70
2010,04,02,10,46,29.00
2010,04,02,10,47,29.00
2010,04,02,10,48,29.00
2010,04,02,10,49,30.60
2010,04,02,10,50,29.00
2010,04,02,10,51,30.60
2010,04,02,10,52,43.50
2010,04,02,10,53,30.60
2010,04,02,10,54,29.00
2010,04,02,10,55,37.00
2010,04,02,10,56,33.80
2010,04,02,10,57,29.00
2010,04,02,10,58,33.80
2010,04,02,10,59,25.70
2010,04,02,11,00,32.20
2010,04,02,11,01,40.20
2010,04,02,11,02,35.40
2010,04,02,11,03,27.40
2010,04,02,11,04,32.20
2010,04,02,11,05,22.50
2010,04,02,11,06,33.80
2010,04,02,11,07,33.80
2010,04,02,11,08,27.40
2010,04,02,11,09,30.60
2010,04,02,11,10,24.20
2010,04,02,11,11,30.60
2010,04,02,11,12,29.00
2010,04,02,11,13,30.60
2010,04,02,11,14,35.40
2010,04,02,11,15,27.40
2010,04,02,11,16,33.80
2010,04,02,11,17,30.60
2010,04,02,11,18,35.40
2010,04,02,11,19,35.40
2010,04,02,11,20,27.40
2010,04,02,11,21,33.80
2010,04,02,11,22,32.20
2010,04,02,11,23,29.00
2010,04,02,11,24,27.40
2010,04,02,11,25,24.20
2010,04,02,11,26,32.20
2010,04,02,11,27,22.50
2010,04,02,11,28,24.20
2010,04,02,11,29,27.40
2010,04,02,11,30,37.00
2010,04,02,11,31,27.40
2010,04,02,11,32,24.20
2010,04,02,11,33,38.60
2010,04,02,11,34,33.80
2010,04,02,11,35,30.60
2010,04,02,11,36,25.70
2010,04,02,11,37,35.40
2010,04,02,11,38,35.40
2010,04,02,11,39,35.40
2010,04,02,11,40,29.00
2010,04,02,11,41,41.80
2010,04,02,11,42,32.20
2010,04,02,11,43,40.20
2010,04,02,11,44,40.20
2010,04,02,11,45,29.00
2010,04,02,11,46,29.00
2010,04,02,11,47,27.40
2010,04,02,11,48,30.60
2010,04,02,11,49,30.60
2010,04,02,11,50,29.00
2010,04,02,11,51,38.60
2010,04,02,11,52,29.00
2010,04,02,11,53,22.50
2010,04,02,11,54,22.50
2010,04,02,11,55,22.50
2010,04,02,11,56,19.30
2010,04,02,11,57,19.30
2010,04,02,11,58,22.50
2010,04,02,11,59,30.60
2010,04,02,12,00,32.20
2010,04,02,12,01,25.70
2010,04,02,12,02,22.50
2010,04,02,12,03,25.70
2010,04,02,12,04,19.30
2010,04,02,12,05,20.90
2010,04,02,12,06,22.50
2010,04,02,12,07,17.70
2010,04,02,12,08,32.20
2010,04,02,12,09,29.00
2010,04,02,12,10,45.10
2010,04,02,12,11,35.40
2010,04,02,12,12,48.30
2010,04,02,12,13,38.60
2010,04,02,12,14,38.60
2010,04,02,12,15,45.10
2010,04,02,12,16,37.00
2010,04,02,12,17,29.00
2010,04,02,12,18,45.10
2010,04,02,12,19,33.80
2010,04,02,12,20,33.80
2010,04,02,12,21,41.80
2010,04,02,12,22,38.60
2010,04,02,12,23,40.20
2010,04,02,12,24,25.70
2010,04,02,12,25,30.60
2010,04,02,12,26,25.70
2010,04,02,12,27,33.80
2010,04,02,12,28,30.60
2010,04,02,12,29,25.70
2010,04,02,12,30,32.20
2010,04,02,12,31,33.80
2010,04,02,12,32,33.80
2010,04,02,12,33,33.80
2010,04,02,12,34,43.50
2010,04,02,12,35,46.70
2010,04,02,12,36,38.60
2010,04,02,12,37,33.80
2010,04,02,12,38,29.00
2010,04,02,12,39,30.60
2010,04,02,12,40,17.70
2010,04,02,12,41,27.40
2010,04,02,12,42,35.40
2010,04,02,12,43,43.50
2010,04,02,12,44,30.60
2010,04,02,12,45,38.60
2010,04,02,12,46,29.00
2010,04,02,12,47,45.10
2010,04,02,12,48,30.60
2010,04,02,12,49,29.00
2010,04,02,12,50,30.60
2010,04,02,12,51,27.40
2010,04,02,12,52,25.70
2010,04,02,12,53,29.00
2010,04,02,12,54,35.40
2010,04,02,12,55,30.60
2010,04,02,12,56,46.70
2010,04,02,12,57,51.50
2010,04,02,12,58,46.70
2010,04,02,12,59,51.50
2010,04,02,13,00,33.80
2010,04,02,13,01,53.10
2010,04,02,13,02,43.50
2010,04,02,13,03,40.20
2010,04,02,13,04,53.10
2010,04,02,13,05,33.80
2010,04,02,13,06,45.10
2010,04,02,13,07,46.70
2010,04,02,13,08,46.70
2010,04,02,13,09,35.40
2010,04,02,13,10,41.80
2010,04,02,13,11,54.70
2010,04,02,13,12,41.80
2010,04,02,13,13,45.10
2010,04,02,13,14,56.30
2010,04,02,13,15,51.50
2010,04,02,13,16,56.30
2010,04,02,13,17,32.20
2010,04,02,13,18,35.40
2010,04,02,13,19,49.90
2010,04,02,13,20,35.40
2010,04,02,13,21,43.50
2010,04,02,13,22,35.40
2010,04,02,13,23,51.50
2010,04,02,13,24,45.10
2010,04,02,13,25,45.10
2010,04,02,13,26,48.30
2010,04,02,13,27,51.50
2010,04,02,13,28,40.20
2010,04,02,13,29,45.10
2010,04,02,13,30,43.50
2010,04,02,13,31,43.50
2010,04,02,13,32,37.00
2010,04,02,13,33,48.30
2010,04,02,13,34,30.60
2010,04,02,13,35,43.50
2010,04,02,13,36,38.60
2010,04,02,13,37,46.70
2010,04,02,13,38,33.80
2010,04,02,13,39,32.20
2010,04,02,13,40,35.40
2010,04,02,13,41,46.70
2010,04,02,13,42,45.10
2010,04,02,13,43,53.10
2010,04,02,13,44,37.00
2010,04,02,13,45,41.80
2010,04,02,13,46,43.50
2010,04,02,13,47,41.80
2010,04,02,13,48,56.30
2010,04,02,13,49,32.20
2010,04,02,13,50,43.50
2010,04,02,13,51,32.20
2010,04,02,13,52,51.50
2010,04,02,13,53,43.50
2010,04,02,13,54,43.50
2010,04,02,13,55,32.20
2010,04,02,13,56,29.00
2010,04,02,13,57,38.60
2010,04,02,13,58,37.00
2010,04,02,13,59,43.50
2010,04,02,14,00,43.50
2010,04,02,14,01,35.40
2010,04,02,14,02,45.10
2010,04,02,14,03,46.70
2010,04,02,14,04,35.40
2010,04,02,14,05,43.50
2010,04,02,14,06,43.50
2010,04,02,14,07,38.60
2010,04,02,14,08,40.20
2010,04,02,14,09,45.10
2010,04,02,14,10,46.70
2010,04,02,14,11,45.10
2010,04,02,14,12,32.20
2010,04,02,14,13,32.20
2010,04,02,14,14,38.60
2010,04,02,14,15,33.80
2010,04,02,14,16,45.10
2010,04,02,14,17,35.40
2010,04,02,14,18,41.80
2010,04,02,14,19,32.20
2010,04,02,14,20,57.90
2010,04,02,14,21,38.60
2010,04,02,14,22,37.00
2010,04,02,14,23,37.00
2010,04,02,14,24,46.70
2010,04,02,14,25,38.60
2010,04,02,14,26,30.60
2010,04,02,14,27,37.00
2010,04,02,14,28,46.70
2010,04,02,14,29,41.80
2010,04,02,14,30,38.60
2010,04,02,14,31,51.50
2010,04,02,14,32,33.80
2010,04,02,14,33,40.20
2010,04,02,14,34,43.50
2010,04,02,14,35,25.70
2010,04,02,14,36,38.60
2010,04,02,14,37,48.30
2010,04,02,14,38,49.90
2010,04,02,14,39,37.00
2010,04,02,14,40,40.20
2010,04,02,14,41,38.60
2010,04,02,14,42,37.00
2010,04,02,14,43,46.70
2010,04,02,14,44,64.40
2010,04,02,14,45,48.30
2010,04,02,14,46,49.90
2010,04,02,14,47,43.50
2010,04,02,14,48,46.70
2010,04,02,14,49,48.30
2010,04,02,14,50,38.60
2010,04,02,14,51,41.80
2010,04,02,14,52,43.50
2010,04,02,14,53,35.40
2010,04,02,14,54,45.10
2010,04,02,14,55,48.30
2010,04,02,14,56,46.70
2010,04,02,14,57,41.80
2010,04,02,14,58,37.00
2010,04,02,14,59,46.70
2010,04,02,15,00,46.70
2010,04,02,15,01,32.20
2010,04,02,15,02,33.80
2010,04,02,15,03,41.80
2010,04,02,15,04,45.10
2010,04,02,15,05,59.50
2010,04,02,15,06,49.90
2010,04,02,15,07,35.40
2010,04,02,15,08,38.60
2010,04,02,15,09,27.40
2010,04,02,15,10,45.10
2010,04,02,15,11,53.10
2010,04,02,15,12,41.80
2010,04,02,15,13,49.90
2010,04,02,15,14,51.50
2010,04,02,15,15,37.00
2010,04,02,15,16,38.60
2010,04,02,15,17,38.60
2010,04,02,15,18,46.70
2010,04,02,15,19,32.20
2010,04,02,15,20,37.00
2010,04,02,15,21,30.60
2010,04,02,15,22,30.60
2010,04,02,15,23,43.50
2010,04,02,15,24,37.00
2010,04,02,15,25,40.20
2010,04,02,15,26,46.70
2010,04,02,15,27,33.80
2010,04,02,15,28,45.10
2010,04,02,15,29,38.60
2010,04,02,15,30,35.40
2010,04,02,15,31,40.20
2010,04,02,15,32,32.20
2010,04,02,15,33,27.40
2010,04,02,15,34,20.90
2010,04,02,15,35,27.40
2010,04,02,15,36,25.70
2010,04,02,15,37,33.80
2010,04,02,15,38,43.50
2010,04,02,15,39,45.10
2010,04,02,15,40,41.80
2010,04,02,15,41,46.70
2010,04,02,15,42,32.20
2010,04,02,15,43,32.20
2010,04,02,15,44,25.70
2010,04,02,15,45,19.30
2010,04,02,15,46,35.40
2010,04,02,15,47,46.70
2010,04,02,15,48,33.80
2010,04,02,15,49,38.60
2010,04,02,15,50,38.60
2010,04,02,15,51,40.20
2010,04,02,15,52,33.80
2010,04,02,15,53,30.60
2010,04,02,15,54,33.80
2010,04,02,15,55,25.70
2010,04,02,15,56,38.60
2010,04,02,15,57,32.20
2010,04,02,15,58,29.00
2010,04,02,15,59,29.00
2010,04,02,16,00,41.80
2010,04,02,16,01,41.80
2010,04,02,16,02,37.00
2010,04,02,16,03,32.20
2010,04,02,16,04,32.20
2010,04,02,16,05,43.50
2010,04,02,16,06,30.60
2010,04,02,16,07,40.20
2010,04,02,16,08,35.40
2010,04,02,16,09,37.00
2010,04,02,16,10,29.00
2010,04,02,16,11,25.70
2010,04,02,16,12,20.90
2010,04,02,16,13,22.50
2010,04,02,16,14,27.40
2010,04,02,16,15,33.80
2010,04,02,16,16,22.50
2010,04,02,16,17,25.70
2010,04,02,16,18,35.40
2010,04,02,16,19,32.20
2010,04,02,16,20,24.20
2010,04,02,16,21,27.40
2010,04,02,16,22,32.20
2010,04,02,16,23,33.80
2010,04,02,16,24,35.40
2010,04,02,16,25,33.80
2010,04,02,16,26,35.40
2010,04,02,16,27,30.60
2010,04,02,16,28,38.60
2010,04,02,16,29,22.50
2010,04,02,16,30,30.60
2010,04,02,16,31,27.40
2010,04,02,16,32,22.50
2010,04,02,16,33,32.20
2010,04,02,16,34,25.70
2010,04,02,16,35,32.20
2010,04,02,16,36,30.60
2010,04,02,16,37,37.00
2010,04,02,16,38,22.50
2010,04,02,16,39,25.70
2010,04,02,16,40,25.70
2010,04,02,16,41,35.40
2010,04,02,16,42,27.40
2010,04,02,16,43,30.60
2010,04,02,16,44,25.70
2010,04,02,16,45,20.90
2010,04,02,16,46,30.60
2010,04,02,16,47,33.80
2010,04,02,16,48,27.40
2010,04,02,16,49,27.40
2010,04,02,16,50,30.60
2010,04,02,16,51,22.50
2010,04,02,16,52,24.20
2010,04,02,16,53,24.20
2010,04,02,16,54,30.60
2010,04,02,16,55,25.70
2010,04,02,16,56,20.90
2010,04,02,16,57,14.50
2010,04,02,16,58,17.70
2010,04,02,16,59,27.40
2010,04,02,17,00,25.70
2010,04,02,17,01,14.50
2010,04,02,17,02,20.90
2010,04,02,17,03,27.40
2010,04,02,17,04,25.70
2010,04,02,17,05,24.20
2010,04,02,17,06,20.90
2010,04,02,17,07,29.00
2010,04,02,17,08,20.90
2010,04,02,17,09,17.70
2010,04,02,17,10,38.60
2010,04,02,17,11,27.40
2010,04,02,17,12,20.90
2010,04,02,17,13,24.20
2010,04,02,17,14,19.30
2010,04,02,17,15,20.90
2010,04,02,17,16,19.30
2010,04,02,17,17,24.20
2010,04,02,17,18,16.10
2010,04,02,17,19,19.30